Weather History for Fallon NAS, NV

Change the Weather History Date:

Monday, October 10, 2011

  Actual Average Record
Temperature  
Mean Temperature 54 °F -  
Max Temperature 62 °F 72 °F 88 °F (1942)
Min Temperature 48 °F 36 °F 24 °F (1985)
Degree Days  
Heating Degree Days 11    
Growing Degree Days 4 (Base 50)    
Moisture  
Dew Point 39 °F    
Average Humidity 59    
Maximum Humidity 83    
Minimum Humidity 31    
Precipitation  
Precipitation 0.12 in - - ()
Sea Level Pressure  
Sea Level Pressure 29.88 in    
Wind  
Wind Speed 7 mph (SSE)    
Max Wind Speed 15 mph    
Max Gust Speed -    
Visibility 10 miles    
Events Rain    
Averages and records for this station are not official NWS values.
T = Trace of Precipitation, MM = Missing Value Source: NWS Daily Summary

Daily Weather History Graph

Daily Weather History Graph

Search for Another Location

Airport:

Trip Planner

Search our weather history database for the weather conditions in past years. The results will help you decide how hot, cold, wet, or windy it might be!

Date:

Astronomy

Oct. 10, 2011 Rise Set
Actual Time 6:59 AM PDT 6:23 PM PDT
Civil Twilight 6:32 AM PDT 6:50 PM PDT
Nautical Twilight 6:01 AM PDT 7:21 PM PDT
Astronomical Twilight 5:30 AM PDT 7:52 PM PDT
Moon 5:29 PM PDT (10/10) 5:45 AM PDT (10/10)
Length of Visible Light 12h 17m
Length of Day
11h 24m
Waxing Gibbous, 98% of the Moon is Illuminated
Oct 10
Waxing Gibbous
Oct 11
Full
Oct 19
Last Quarter
Oct 26
New
Nov 2
First Quarter

Hourly Weather History & Observations

Time (PDT) Temp. Dew Point Humidity Pressure Visibility Wind Dir Wind Speed Gust Speed Precip Events Conditions
12:56 AM 48.9 °F 26.1 °F 41% 29.90 in 10.0 mi South 6.9 mph - N/A   Clear
1:56 AM 48.9 °F 27.0 °F 43% 29.89 in 10.0 mi South 8.1 mph - N/A   Clear
2:56 AM 50.0 °F 26.1 °F 39% 29.88 in 10.0 mi SSE 6.9 mph - N/A   Partly Cloudy
3:56 AM 51.1 °F 26.1 °F 38% 29.87 in 10.0 mi SSE 5.8 mph - N/A   Scattered Clouds
4:56 AM 50.0 °F 28.0 °F 43% 29.88 in 10.0 mi South 5.8 mph - N/A   Mostly Cloudy
5:56 AM 50.0 °F 27.0 °F 41% 29.87 in 10.0 mi SE 5.8 mph - N/A   Overcast
6:56 AM 50.0 °F 28.0 °F 43% 29.87 in 10.0 mi South 3.5 mph - N/A   Overcast
7:56 AM 53.1 °F 28.9 °F 40% 29.86 in 10.0 mi SSE 5.8 mph - N/A   Overcast
8:56 AM 57.9 °F 27.0 °F 31% 29.87 in 10.0 mi South 11.5 mph - N/A   Overcast
9:56 AM 57.0 °F 39.0 °F 51% 29.89 in 10.0 mi South 5.8 mph - 0.00 in Rain Light Rain
10:56 AM 55.0 °F 45.0 °F 69% 29.93 in 6.0 mi Calm Calm - 0.02 in Rain Light Rain
11:56 AM 53.1 °F 46.9 °F 80% 29.94 in 7.0 mi Calm Calm - 0.04 in Rain Light Rain
12:56 PM 51.1 °F 46.0 °F 83% 29.93 in 6.0 mi East 5.8 mph - 0.05 in Rain Light Rain
1:56 PM 55.0 °F 48.0 °F 77% 29.89 in 10.0 mi SE 15.0 mph - 0.01 in   Partly Cloudy
2:56 PM 57.9 °F 48.0 °F 70% 29.88 in 10.0 mi SSE 15.0 mph - N/A   Scattered Clouds
3:56 PM 60.1 °F 48.0 °F 64% 29.87 in 10.0 mi SSE 9.2 mph - N/A   Scattered Clouds
4:56 PM 60.1 °F 46.9 °F 62% 29.86 in 10.0 mi South 9.2 mph - N/A   Partly Cloudy
5:56 PM 60.1 °F 46.0 °F 60% 29.86 in 10.0 mi South 9.2 mph - N/A   Partly Cloudy
6:56 PM 55.9 °F 46.9 °F 72% 29.87 in 10.0 mi SSE 9.2 mph - N/A   Overcast
7:56 PM 54.0 °F 46.0 °F 75% 29.88 in 10.0 mi SSE 5.8 mph - N/A   Scattered Clouds
8:56 PM 55.0 °F 46.9 °F 74% 29.88 in 10.0 mi South 8.1 mph - N/A   Mostly Cloudy
9:56 PM 55.0 °F 46.9 °F 74% 29.89 in 10.0 mi South 9.2 mph - N/A   Overcast
10:56 PM 55.0 °F 46.9 °F 74% 29.88 in 10.0 mi South 5.8 mph - N/A   Overcast
11:56 PM 55.9 °F 46.9 °F 72% 29.89 in 10.0 mi South 6.9 mph - N/A   Overcast